TimePDT,TemperatureF,Dew PointF,Humidity,Sea Level PressureIn,VisibilityMPH,Wind Direction,Wind SpeedMPH,Gust SpeedMPH,PrecipitationIn,Events,Conditions,WindDirDegrees,DateUTC
12:56 AM,53.1,48.0,83,30.11,10.0,Calm,Calm,-,N/A,,Clear,0,2011-10-07 07:56:00
1:56 AM,52.0,48.9,89,30.12,10.0,Calm,Calm,-,N/A,,Clear,0,2011-10-07 08:56:00
2:56 AM,53.1,48.9,86,30.12,10.0,Calm,Calm,-,N/A,,Clear,0,2011-10-07 09:56:00
3:56 AM,51.1,46.9,86,30.12,10.0,Calm,Calm,-,N/A,,Clear,0,2011-10-07 10:56:00
4:56 AM,48.9,46.0,90,30.13,10.0,Calm,Calm,-,N/A,,Clear,0,2011-10-07 11:56:00
5:56 AM,50.0,46.0,86,30.14,10.0,SE,3.5,-,N/A,,Clear,130,2011-10-07 12:56:00
7:56 AM,52.0,46.9,83,30.17,10.0,SSE,4.6,-,N/A,,Clear,150,2011-10-07 14:56:00
8:56 AM,55.9,48.0,75,30.19,10.0,Calm,Calm,-,N/A,,Clear,0,2011-10-07 15:56:00
9:56 AM,60.1,48.9,67,30.19,10.0,Calm,Calm,-,N/A,,Clear,0,2011-10-07 16:56:00
10:56 AM,64.0,48.9,58,30.19,10.0,Calm,Calm,-,N/A,,Clear,0,2011-10-07 17:56:00
11:56 AM,66.0,46.0,48,30.18,10.0,Calm,Calm,-,N/A,,Clear,0,2011-10-07 18:56:00
12:56 PM,70.0,45.0,41,30.17,10.0,North,6.9,-,N/A,,Clear,10,2011-10-07 19:56:00
1:56 PM,71.1,43.0,36,30.14,10.0,North,6.9,-,N/A,,Clear,360,2011-10-07 20:56:00
2:56 PM,73.0,42.1,33,30.13,10.0,NNW,8.1,-,N/A,,Clear,340,2011-10-07 21:56:00
3:56 PM,73.0,44.1,35,30.13,10.0,NNW,12.7,-,N/A,,Clear,340,2011-10-07 22:56:00
4:56 PM,70.0,53.1,55,30.13,10.0,NNW,12.7,-,N/A,,Clear,340,2011-10-07 23:56:00
5:56 PM,68.0,54.0,61,30.12,10.0,NNW,10.4,-,N/A,,Clear,340,2011-10-08 00:56:00
6:56 PM,64.9,55.0,70,30.12,10.0,North,13.8,-,N/A,,Clear,350,2011-10-08 01:56:00
7:56 PM,64.0,52.0,65,30.13,10.0,NNW,6.9,-,N/A,,Clear,340,2011-10-08 02:56:00
8:56 PM,62.1,53.1,72,30.14,10.0,North,9.2,-,N/A,,Clear,350,2011-10-08 03:56:00
9:56 PM,61.0,53.1,75,30.14,10.0,North,3.5,-,N/A,,Clear,350,2011-10-08 04:56:00
10:56 PM,61.0,54.0,78,30.14,10.0,Calm,Calm,-,N/A,,Clear,0,2011-10-08 05:56:00
11:56 PM,60.1,53.1,78,30.14,10.0,Calm,Calm,-,N/A,,Clear,0,2011-10-08 06:56:00